Theta_e
343 342 347 341 324 320 312 314 321 318 320 326 327 325 324 325 321 318 339 342 341 341 351 351 352 351 350 349 347 347 348 349 349 347 345 339 336 336 336 336 337 337 338 338 337 336 336 337 338
346 345 343 334 318 311 313 319 318 322 325 328 326 326 325 323 331 333 335 340 341 344 351 353 353 352 350 349 348 349 348 347 347 346 341 336 335 335 335 335 336 336 337 338 338 337 336 337 337
346 344 333 323 317 310 313 320 321 324 327 326 325 328 326 327 334 337 341 344 345 345 353 355 354 351 351 349 349 346 344 343 343 342 340 337 335 335 334 334 334 336 337 336 336 336 337 337 337
341 340 333 317 313 317 319 321 323 324 327 328 326 325 334 339 336 342 344 342 343 343 354 354 354 351 351 349 344 340 339 338 338 337 336 336 336 339 335 333 333 335 336 336 336 336 336 336 336
341 333 320 316 315 318 324 325 325 324 325 327 326 325 331 337 343 344 345 342 341 342 353 352 354 352 349 344 340 338 337 337 339 341 339 339 337 336 334 334 335 336 335 335 335 335 335 335 335
329 330 314 311 314 318 323 325 324 322 324 325 326 325 332 342 342 343 343 342 343 341 342 351 353 352 346 341 339 337 336 335 336 337 337 336 336 337 337 335 335 335 335 334 334 334 334 334 333
325 320 314 314 315 316 320 327 323 323 323 323 328 322 333 338 343 343 342 343 342 337 335 340 351 348 345 340 338 336 336 334 333 332 331 332 333 333 331 331 333 333 333 332 332 331 332 332 333
329 323 315 317 314 315 323 324 326 325 323 330 329 323 327 337 344 342 339 338 332 329 328 332 343 345 344 339 338 335 334 331 329 327 326 328 333 333 331 330 332 331 330 330 330 330 329 329 330
332 317 314 316 316 318 326 323 327 329 328 327 328 328 330 338 339 336 334 331 328 327 328 330 333 337 339 340 337 335 334 332 331 331 327 332 331 330 330 330 327 327 328 329 328 327 328 329 332
324 316 315 321 323 321 324 324 326 326 326 326 326 330 332 334 334 332 330 327 328 326 325 327 333 337 338 337 338 336 334 334 333 332 332 328 331 330 329 330 329 329 328 331 327 329 330 331 325
323 317 321 321 325 327 326 326 329 326 324 327 325 329 331 332 332 330 329 325 322 324 327 327 335 339 339 338 337 336 334 333 334 334 333 331 329 329 327 327 327 328 328 325 326 326 324 324 325
319 323 323 323 326 326 325 328 326 328 329 332 331 331 331 330 330 329 327 325 326 327 326 327 334 339 340 340 337 335 334 331 331 332 333 330 326 327 327 326 326 327 325 325 325 324 325 325 325
322 323 325 327 327 327 328 327 326 327 332 334 332 331 330 330 330 330 328 327 330 328 327 328 331 337 341 340 336 336 334 331 333 332 332 330 328 328 326 327 325 325 324 324 323 324 324 324 324
323 324 324 326 327 328 326 327 328 330 333 333 332 330 330 329 329 330 329 330 331 330 328 330 332 335 335 336 335 335 335 333 334 333 332 331 330 331 328 327 325 324 325 325 324 324 323 324 324
324 321 321 324 326 325 328 323 325 331 333 331 332 331 330 330 331 331 333 332 334 332 332 331 331 332 333 334 335 334 334 331 332 332 335 331 332 332 332 327 326 325 326 325 325 324 324 323 325
320 320 313 322 323 328 327 318 328 333 332 330 331 332 331 331 331 334 335 336 337 335 334 333 328 332 334 334 333 332 332 333 333 334 334 332 330 331 332 327 328 328 326 325 324 323 322 322 323
316 311 313 316 324 323 324 318 328 333 331 329 332 333 333 333 333 335 337 336 337 336 335 334 333 331 332 337 336 338 337 334 332 334 333 333 332 329 331 328 329 330 325 325 324 324 324 321 321
311 311 313 313 320 321 318 318 323 331 330 329 330 331 333 333 335 336 338 338 338 336 337 338 335 335 336 333 334 332 331 332 332 332 332 333 331 330 331 330 330 329 325 325 325 326 325 323 320
316 316 310 317 321 319 318 318 321 327 329 330 331 330 331 332 337 339 339 339 337 337 336 335 334 334 333 331 329 327 329 331 330 332 333 332 331 331 332 329 330 329 327 327 327 325 324 322 323
317 314 314 318 319 320 317 317 321 324 324 328 329 329 331 333 334 337 340 339 338 336 336 336 335 332 332 331 331 329 329 329 330 330 333 334 333 332 331 332 330 331 326 329 327 327 322 321 324
314 314 314 314 318 321 319 315 316 323 327 329 332 332 331 331 331 333 336 341 339 337 336 335 337 334 333 335 332 332 332 333 331 331 331 334 333 332 332 332 330 330 330 325 327 326 325 319 322
311 317 316 315 314 311 317 306 310 320 323 325 326 328 329 330 331 330 331 335 340 338 339 337 339 339 336 338 335 333 329 326 329 328 331 331 333 332 331 331 330 331 329 330 328 326 325 327 320
315 318 318 316 315 314 313 308 312 314 318 322 325 328 329 330 330 331 336 339 343 341 339 337 342 341 337 339 339 333 333 332 332 329 333 335 336 333 330 330 330 330 329 331 331 330 328 325 323
320 317 316 316 312 307 311 308 304 313 317 321 325 328 329 329 330 333 339 342 342 341 339 338 341 341 340 340 339 336 332 332 330 331 328 328 330 330 332 330 331 332 331 332 330 332 330 329 328
317 316 306 305 305 302 313 310 313 318 321 323 325 328 329 329 329 331 335 337 339 338 337 338 341 340 342 339 339 337 336 335 334 333 330 329 327 329 334 332 333 331 333 332 332 333 333 330 328
316 315 304 300 301 304 311 305 313 321 326 327 328 329 330 328 330 331 334 337 338 338 339 340 339 341 341 340 340 340 338 333 333 335 331 328 327 329 333 333 333 333 333 333 335 331 330 335 332
314 312 318 310 311 303 308 313 314 318 321 325 327 328 329 329 328 330 334 336 339 339 340 339 339 340 340 340 341 341 339 337 335 336 337 332 334 329 332 332 333 334 334 335 338 333 335 337 337
316 318 309 310 301 300 304 305 308 316 318 322 324 326 327 326 327 329 333 337 339 341 341 340 340 340 341 341 342 341 340 337 337 338 337 337 336 335 335 334 335 335 335 335 337 337 336 333 332
314 313 311 314 309 303 301 307 318 319 321 323 325 327 326 325 326 329 333 336 339 340 340 341 340 338 339 342 342 341 338 338 338 337 337 337 337 336 334 334 334 333 334 336 336 337 332 329 331
316 314 315 309 307 308 307 308 321 325 325 326 325 327 326 326 327 329 332 336 338 339 339 341 341 337 338 339 340 340 339 339 338 337 337 338 336 336 334 334 333 332 334 331 332 329 327 325 325
Wind_Speed
10 14 12 9 9 5 13 10 10 7 13 9 9 11 11 15 15 7 9 8 4 11 15 11 7 5 4 3 3 4 4 6 5 4 7 6 7 8 9 10 11 11 11 10 9 9 9 9 9
12 9 9 10 3 8 10 4 15 14 11 8 4 2 11 12 14 13 12 6 4 8 8 13 9 5 4 4 4 6 6 6 5 5 6 6 6 7 8 9 10 10 10 11 11 10 10 10 10
16 11 12 9 4 4 11 9 11 9 6 5 2 6 3 9 6 7 12 6 11 4 14 13 9 5 5 5 7 8 7 7 6 4 3 3 4 4 5 6 8 8 9 10 10 9 10 10 11
10 11 10 7 12 8 12 9 4 3 7 5 5 11 8 6 4 9 9 3 6 5 20 16 11 5 8 8 9 8 7 7 6 4 1 2 4 7 6 3 5 6 8 9 9 10 10 11 11
12 11 7 9 10 4 10 9 6 4 5 10 3 12 13 6 7 10 7 2 6 5 20 15 13 9 9 10 9 8 7 8 8 9 6 5 5 7 6 5 7 8 8 8 8 8 9 10 11
11 1 5 12 11 6 7 4 2 3 6 9 1 6 12 10 9 9 7 5 5 9 3 15 14 14 11 9 8 7 8 9 8 8 7 6 5 6 7 6 7 9 9 10 10 9 9 9 9
13 8 8 14 11 4 10 2 8 10 4 12 6 2 9 12 9 6 4 8 3 4 4 10 16 15 15 11 8 7 8 8 6 6 4 3 1 1 2 3 6 9 9 9 10 10 10 11 11
8 6 9 15 12 11 8 6 2 11 13 6 3 5 8 12 8 7 7 4 7 7 1 1 14 15 15 14 11 7 6 4 2 1 2 6 7 7 6 2 10 8 8 9 10 12 13 12 12
12 3 11 5 14 13 8 6 3 4 0 3 4 5 7 14 8 6 4 7 6 8 5 4 6 5 5 15 11 10 9 6 6 6 3 11 6 4 3 7 1 3 6 7 8 9 12 14 18
9 11 10 9 6 11 8 3 7 5 5 5 5 7 4 9 8 5 3 3 7 1 1 7 5 4 4 3 7 4 4 5 6 7 9 9 3 3 7 2 7 7 9 11 7 9 15 13 7
15 10 2 7 8 10 8 0 2 1 2 5 2 12 9 8 5 8 4 3 4 8 3 5 5 2 6 5 2 2 2 3 4 6 6 5 6 6 5 5 2 6 1 7 8 7 7 10 7
7 4 5 6 5 2 2 2 1 3 8 6 3 7 9 8 9 5 6 7 6 7 5 5 8 3 3 4 2 3 1 4 5 4 7 5 4 5 5 5 6 6 6 7 8 6 8 8 7
12 3 2 3 2 3 3 7 4 5 1 6 1 5 8 8 6 8 5 3 7 6 5 8 3 3 3 3 3 1 2 3 4 3 7 6 5 5 4 5 5 6 6 7 7 8 8 8 8
2 2 1 4 2 5 7 10 3 6 3 6 5 7 7 7 8 9 7 8 5 6 5 8 7 5 6 1 2 2 1 3 2 3 5 5 5 5 6 5 6 7 7 7 7 7 7 7 6
3 4 17 7 5 2 6 12 8 2 4 5 7 7 7 8 11 8 9 7 10 8 7 6 5 5 2 4 2 1 1 3 2 3 4 4 5 6 7 5 6 7 6 8 7 8 8 7 6
5 14 10 14 1 8 8 11 8 6 5 6 7 7 8 9 9 12 9 8 9 11 10 8 6 8 6 6 0 0 2 2 3 1 2 2 4 4 8 5 7 8 6 6 8 8 8 7 8
30 6 7 13 12 2 6 6 11 8 4 4 7 7 8 10 11 8 10 12 12 12 12 10 8 9 9 9 3 1 5 4 5 2 3 4 4 5 6 4 7 9 6 6 8 8 7 7 7
14 10 5 8 14 14 9 9 13 11 4 3 3 4 8 11 12 12 12 11 14 12 11 9 8 5 3 3 2 2 2 8 3 4 3 1 5 4 4 6 4 6 6 7 7 8 7 6 7
8 16 22 11 9 13 11 5 11 9 10 10 7 4 3 3 6 11 11 11 12 13 12 12 11 10 6 2 6 5 6 2 4 4 3 4 4 5 4 6 5 5 6 4 7 8 9 6 7
24 16 13 5 3 9 6 4 8 8 4 8 9 5 2 1 3 6 12 12 15 15 13 10 9 10 8 6 3 1 3 3 4 4 3 4 5 5 5 5 6 7 7 2 6 7 7 6 4
10 13 10 10 13 6 6 17 17 8 12 11 10 6 4 6 8 6 6 17 16 16 15 11 10 9 8 4 3 3 3 5 7 5 6 4 3 5 4 5 4 4 7 6 5 5 7 7 8
5 11 12 9 13 6 12 8 23 6 14 13 9 10 11 9 9 11 9 5 16 16 13 12 10 9 8 7 4 2 5 4 6 4 4 4 3 4 5 5 5 4 6 5 5 6 6 5 8
12 10 17 22 24 10 12 5 6 32 10 12 9 9 9 8 11 13 13 14 17 15 13 12 10 9 7 8 6 4 4 0 1 4 2 3 4 4 5 4 4 5 6 6 3 5 5 7 7
11 17 8 18 9 5 10 11 2 3 10 9 9 11 7 9 11 10 9 9 10 11 11 11 9 9 9 7 7 4 2 3 5 5 5 3 2 3 4 3 4 4 5 7 6 6 7 8 8
22 24 9 8 3 5 16 4 5 12 12 10 7 11 9 9 11 10 8 10 8 10 11 11 11 8 10 9 7 6 4 3 4 5 2 4 3 2 6 2 4 5 5 7 8 8 7 9 10
17 10 10 15 12 13 6 6 14 12 10 8 8 9 8 9 10 10 8 8 9 11 12 9 11 11 10 10 8 6 5 6 5 6 5 6 5 3 3 3 5 7 8 8 8 9 8 8 9
2 7 17 11 12 5 9 15 19 25 10 9 9 8 7 7 7 7 8 5 7 9 11 11 9 6 9 10 8 7 6 5 5 3 3 5 2 4 3 4 6 8 9 10 9 9 9 9 9
11 11 11 7 6 10 12 10 5 14 12 10 7 8 5 4 7 6 7 6 4 7 9 11 8 7 7 8 9 8 7 6 6 6 7 7 6 6 7 8 8 9 10 12 9 9 10 10 7
10 8 5 6 9 11 12 7 14 13 10 9 7 7 6 5 8 5 7 5 2 7 11 10 8 5 7 6 7 7 6 5 6 7 8 8 7 7 8 9 10 11 11 11 7 10 10 11 10
6 11 11 7 12 13 10 8 24 9 11 8 4 5 7 5 8 8 8 3 4 3 5 8 6 6 5 4 5 6 5 5 6 7 8 8 8 8 9 9 10 11 7 7 9 10 10 10 10
Wind_Direction
208 225 237 258 247 217 93 90 92 74 82 62 59 22 60 27 12 57 113 85 90 82 112 146 135 130 117 91 50 26 34 25 35 39 79 68 57 47 41 35 29 26 23 19 20 16 8 5 358
249 239 244 263 217 16 69 87 69 65 72 92 119 236 51 66 76 114 121 112 110 101 89 109 129 129 114 81 49 59 50 46 49 56 80 65 50 36 28 26 19 15 15 23 19 28 18 8 360
266 254 263 239 65 70 78 56 69 81 69 22 148 59 43 96 91 81 89 122 78 165 80 107 117 138 121 97 89 76 57 40 32 37 58 67 46 19 11 14 11 11 19 12 12 13 6 359 353
258 224 241 233 58 34 67 73 51 102 117 102 352 89 110 17 126 83 115 130 187 110 118 121 128 135 120 110 94 75 53 35 18 345 353 38 6 350 341 349 358 22 7 6 358 355 356 353 347
228 261 250 88 73 86 68 65 355 70 102 38 15 106 83 113 99 111 115 188 73 33 110 126 128 125 121 113 95 76 58 50 43 36 59 34 15 11 14 22 20 10 358 356 359 2 354 349 342
270 200 247 72 85 106 82 91 326 53 73 93 180 94 78 118 153 144 143 104 31 52 2 127 128 127 117 104 94 81 68 59 52 45 37 31 16 31 23 16 11 3 3 1 358 354 348 340 336
261 36 47 92 118 125 87 39 18 53 339 52 89 353 100 166 121 134 151 120 93 76 80 118 133 135 136 132 106 82 76 66 53 34 6 344 318 105 355 4 24 10 0 357 351 344 336 325 317
287 156 77 60 82 96 94 106 85 39 67 87 342 353 118 133 155 148 133 102 70 74 47 194 159 159 162 155 123 114 102 110 117 129 274 266 238 219 212 263 38 5 350 340 337 333 324 307 286
269 36 71 51 87 108 141 123 92 83 45 58 71 25 50 113 170 162 152 135 48 54 1 34 359 69 144 133 132 165 159 190 198 196 252 262 257 16 299 90 154 304 309 301 302 311 302 288 270
286 73 63 58 353 95 102 25 110 230 143 159 161 120 133 144 169 178 166 72 80 113 142 22 357 112 130 184 115 162 125 55 29 18 342 347 352 345 300 236 200 222 261 267 278 278 277 271 332
42 68 91 113 40 344 75 76 63 276 86 72 82 126 146 160 181 172 185 86 53 93 75 37 98 281 333 62 30 123 54 2 119 57 354 28 325 356 345 348 18 351 11 6 340 341 358 343 339
140 91 334 82 132 277 319 356 253 275 69 36 69 103 152 172 159 209 168 148 111 109 86 137 81 144 337 336 204 102 260 349 49 71 5 12 6 345 340 5 339 350 1 351 351 345 348 336 323
20 64 251 167 240 277 350 281 275 233 221 122 115 137 168 171 170 153 158 99 102 122 118 104 105 73 117 223 69 5 317 54 5 40 68 4 8 345 3 5 351 360 350 350 349 357 347 331 336
340 325 100 181 214 187 252 259 164 135 183 162 176 172 181 175 168 162 180 158 133 115 147 99 133 135 138 312 24 359 122 119 252 67 37 34 358 357 347 10 356 3 354 342 343 351 336 328 345
264 272 340 133 82 311 298 267 200 116 185 200 192 191 200 186 170 194 175 177 161 165 140 144 124 124 87 122 188 62 247 79 327 18 121 18 18 5 316 5 10 6 339 346 348 343 340 344 337
195 335 162 92 115 93 290 97 106 117 178 212 202 216 203 209 214 177 186 169 160 161 165 171 131 134 153 81 186 10 84 342 261 280 313 10 355 63 322 3 26 352 334 2 350 352 348 357 335
285 37 2 136 75 334 225 308 137 139 188 228 214 208 215 217 221 208 187 177 175 169 170 158 154 155 161 160 196 101 82 263 256 268 271 77 308 353 328 8 14 328 348 1 354 350 356 345 351
356 340 31 42 44 329 21 2 70 128 129 149 217 198 215 216 228 210 201 196 170 168 175 143 160 144 176 140 163 136 205 244 240 256 253 255 312 11 355 327 10 326 1 350 357 340 338 326 357
293 44 312 62 29 326 37 18 74 99 144 150 180 168 216 282 226 213 205 191 181 172 182 175 155 169 177 183 218 146 232 210 234 230 228 284 291 332 325 319 338 5 356 351 356 342 337 331 14
330 342 15 45 43 296 8 293 111 104 97 80 90 89 87 262 214 225 204 190 192 179 179 189 180 180 175 201 225 248 327 299 330 329 7 292 300 289 280 349 320 29 327 36 6 340 336 336 29
166 345 358 337 298 239 33 65 305 147 106 108 116 152 110 45 8 350 297 185 189 175 179 192 193 180 178 195 204 190 230 223 223 200 214 182 214 267 293 298 308 308 280 16 329 352 341 339 328
48 5 312 341 302 25 313 111 320 192 121 92 65 50 39 26 24 11 338 246 179 171 170 191 193 190 185 189 215 289 321 334 22 294 44 329 291 286 295 275 279 289 321 297 321 20 318 292 322
328 317 31 328 311 50 334 12 69 287 71 95 82 64 35 31 44 19 5 347 145 156 168 191 187 186 199 188 259 206 238 282 323 341 89 240 241 241 277 282 282 288 274 347 302 267 291 304 295
307 283 135 285 357 236 285 326 326 274 43 47 76 74 35 25 37 59 51 52 120 142 161 187 178 188 206 202 205 236 307 315 334 15 315 281 305 242 169 278 277 281 290 264 278 289 279 275 288
342 297 321 282 271 5 17 303 70 55 50 42 57 69 46 26 47 50 68 97 128 146 163 176 180 180 202 204 202 205 217 233 241 265 324 319 311 327 95 304 254 283 297 289 284 284 278 272 268
214 341 117 276 330 12 262 266 60 49 105 90 94 77 46 34 56 57 66 119 145 151 167 182 176 208 189 206 205 205 201 228 235 196 336 316 327 318 39 273 272 274 278 282 282 277 278 289 281
182 246 262 324 305 193 339 75 33 292 57 91 88 75 47 45 55 77 91 77 116 159 173 177 202 178 189 203 205 204 211 243 309 313 279 269 254 280 231 293 290 287 284 282 285 282 289 285 290
263 308 294 201 277 337 329 95 177 22 29 27 81 69 49 43 58 51 82 96 160 169 168 196 164 173 202 208 196 202 210 228 245 252 261 283 287 279 289 292 288 285 285 284 293 293 297 299 302
210 235 302 286 63 309 314 32 16 354 41 20 36 38 38 24 57 44 94 102 146 185 174 197 179 172 175 199 192 205 218 230 248 261 272 273 278 281 280 285 291 289 287 285 308 303 308 305 292
271 307 330 317 335 334 316 35 342 50 39 24 1 74 31 18 29 50 73 65 135 189 161 171 214 205 126 145 191 207 232 251 265 275 280 275 271 281 286 286 299 301 333 3 325 299 310 330 332